Location: Betzi
(47.2343°N, 9.5260°E)
Time: 21:26:36
(UTC+00:00)

Cosmos 1703 - Pass Details

Date: 27 May 2022
Orbit: 518 x 535 km, 82.5° (Epoch: 29 June)

Event Time Altitude Azimuth Distance (km) Brightness Sun altitude
Exits shadow 01:25:04 17° 158° (SSE) 1,397 5.0 -15.9°
Maximum altitude 01:27:45 43° 93° (E) 765 4.2 -15.6°
Drops below altitude 10° 01:31:30 10° 22° (NNE) 1,796 7.3 -15.3°
Sets 01:33:43 0° 16° (NNE) 2,689 8.4 -15.1°
